Time,TemperatureF,DewpointF,PressureIn,WindDirection,WindDirectionDegrees,WindSpeedMPH,WindSpeedGustMPH,Humidity,HourlyPrecipIn,Conditions,Clouds,dailyrainin,SoftwareType,DateUTC
2016-02-10 00:02:00,28.0,11.8,30.29,NE,55,1.1,5.0,50,0.00,,,0.00,meteobridge,2016-02-10 06:02:00,
2016-02-10 00:07:00,27.9,11.7,30.29,ENE,78,1.1,1.1,50,0.00,,,0.00,meteobridge,2016-02-10 06:07:00,
2016-02-10 00:12:00,27.9,11.7,30.29,NNW,333,3.1,3.1,50,0.00,,,0.00,meteobridge,2016-02-10 06:12:00,
2016-02-10 00:17:00,27.7,12.4,30.29,NNE,27,1.1,2.0,52,0.00,,,0.00,meteobridge,2016-02-10 06:17:00,
2016-02-10 00:22:00,27.5,11.7,30.29,North,6,2.0,2.0,51,0.00,,,0.00,meteobridge,2016-02-10 06:22:00,
2016-02-10 00:27:00,27.3,12.0,30.29,NNE,28,2.0,2.0,52,0.00,,,0.00,meteobridge,2016-02-10 06:27:00,
2016-02-10 00:32:00,27.1,12.2,30.29,NNE,18,0.0,0.0,53,0.00,,,0.00,meteobridge,2016-02-10 06:32:00,
2016-02-10 00:37:00,27.0,12.0,30.29,NE,35,0.0,0.0,53,0.00,,,0.00,meteobridge,2016-02-10 06:37:00,
2016-02-10 00:42:00,27.0,12.0,30.29,NE,35,0.0,0.0,53,0.00,,,0.00,meteobridge,2016-02-10 06:42:00,
2016-02-10 00:47:00,26.6,11.8,30.29,NE,35,0.0,0.0,53,0.00,,,0.00,meteobridge,2016-02-10 06:47:00,
2016-02-10 00:52:00,26.4,12.0,30.29,NE,44,0.0,0.0,54,0.00,,,0.00,meteobridge,2016-02-10 06:52:00,
2016-02-10 00:57:00,26.4,12.0,30.29,NE,44,0.0,0.0,54,0.00,,,0.00,meteobridge,2016-02-10 06:57:00,
2016-02-10 01:02:00,26.2,11.8,30.29,NE,44,0.0,0.0,54,0.00,,,0.00,meteobridge,2016-02-10 07:02:00,
2016-02-10 01:07:00,26.1,12.0,30.29,NE,44,0.0,0.0,55,0.00,,,0.00,meteobridge,2016-02-10 07:07:00,
2016-02-10 01:17:00,25.9,12.4,30.28,ESE,103,0.0,0.0,56,0.00,,,0.00,meteobridge,2016-02-10 07:17:00,
2016-02-10 01:22:00,25.9,12.4,30.28,ESE,103,0.0,0.0,56,0.00,,,0.00,meteobridge,2016-02-10 07:22:00,
2016-02-10 01:27:00,25.9,12.4,30.29,ESE,103,0.0,0.0,56,0.00,,,0.00,meteobridge,2016-02-10 07:27:00,
2016-02-10 01:33:00,25.5,12.4,30.29,North,0,0.0,0.0,57,0.00,,,0.00,meteobridge,2016-02-10 07:33:00,
2016-02-10 01:43:00,25.2,12.4,30.29,North,0,0.0,0.0,58,0.00,,,0.00,meteobridge,2016-02-10 07:43:00,
2016-02-10 01:48:00,25.0,12.7,30.28,North,0,0.0,0.0,59,0.00,,,0.00,meteobridge,2016-02-10 07:48:00,
2016-02-10 01:53:00,24.8,12.9,30.28,North,0,0.0,0.0,60,0.00,,,0.00,meteobridge,2016-02-10 07:53:00,
2016-02-10 01:58:00,24.6,13.1,30.28,North,0,0.0,0.0,61,0.00,,,0.00,meteobridge,2016-02-10 07:58:00,
2016-02-10 02:08:00,24.4,12.9,30.27,North,0,0.0,0.0,61,0.00,,,0.00,meteobridge,2016-02-10 08:08:00,
2016-02-10 02:18:00,24.3,12.7,30.27,North,0,0.0,0.0,61,0.00,,,0.00,meteobridge,2016-02-10 08:18:00,
2016-02-10 02:23:00,24.3,13.1,30.27,North,0,0.0,0.0,62,0.00,,,0.00,meteobridge,2016-02-10 08:23:00,
2016-02-10 02:28:00,24.3,13.5,30.27,North,0,0.0,0.0,63,0.00,,,0.00,meteobridge,2016-02-10 08:28:00,
2016-02-10 02:38:00,24.1,13.3,30.27,North,0,0.0,0.0,63,0.00,,,0.00,meteobridge,2016-02-10 08:38:00,
2016-02-10 02:43:00,23.9,13.1,30.27,North,0,0.0,0.0,63,0.00,,,0.00,meteobridge,2016-02-10 08:43:00,
2016-02-10 02:48:00,23.9,13.1,30.27,North,0,0.0,0.0,63,0.00,,,0.00,meteobridge,2016-02-10 08:48:00,
2016-02-10 02:53:00,23.7,13.3,30.26,North,0,0.0,0.0,64,0.00,,,0.00,meteobridge,2016-02-10 08:53:00,
2016-02-10 02:58:00,23.7,13.6,30.26,WSW,247,0.0,0.0,65,0.00,,,0.00,meteobridge,2016-02-10 08:58:00,
2016-02-10 03:08:00,23.4,13.6,30.26,WSW,247,0.0,0.0,66,0.00,,,0.00,meteobridge,2016-02-10 09:08:00,
2016-02-10 03:14:00,23.2,14.2,30.26,WSW,247,0.0,0.0,68,0.00,,,0.00,meteobridge,2016-02-10 09:14:00,
2016-02-10 03:19:00,23.0,14.0,30.26,WSW,247,0.0,0.0,68,0.00,,,0.00,meteobridge,2016-02-10 09:19:00,
2016-02-10 03:24:00,23.2,15.4,30.26,WSW,247,0.0,0.0,72,0.00,,,0.00,meteobridge,2016-02-10 09:24:00,
2016-02-10 03:29:00,22.8,14.2,30.26,WSW,247,0.0,0.0,69,0.00,,,0.00,meteobridge,2016-02-10 09:29:00,
2016-02-10 03:34:00,22.6,14.0,30.26,WSW,247,0.0,0.0,69,0.00,,,0.00,meteobridge,2016-02-10 09:34:00,
2016-02-10 03:39:00,22.5,14.5,30.26,WSW,247,0.0,0.0,71,0.00,,,0.00,meteobridge,2016-02-10 09:39:00,
2016-02-10 03:44:00,22.6,16.2,30.26,WSW,247,0.0,0.0,76,0.00,,,0.00,meteobridge,2016-02-10 09:44:00,
2016-02-10 03:49:00,22.5,14.7,30.26,WSW,247,0.0,0.0,72,0.00,,,0.00,meteobridge,2016-02-10 09:49:00,
2016-02-10 03:54:00,22.5,15.1,30.26,WSW,247,0.0,0.0,73,0.00,,,0.00,meteobridge,2016-02-10 09:54:00,
2016-02-10 03:59:00,22.8,15.1,30.26,WSW,247,0.0,0.0,72,0.00,,,0.00,meteobridge,2016-02-10 09:59:00,
2016-02-10 04:04:00,23.0,15.3,30.26,WSW,247,0.0,0.0,72,0.00,,,0.00,meteobridge,2016-02-10 10:04:00,
2016-02-10 04:09:00,23.2,15.4,30.27,WSW,247,0.0,0.0,72,0.00,,,0.00,meteobridge,2016-02-10 10:09:00,
2016-02-10 04:14:00,22.8,14.9,30.26,WSW,247,0.0,0.0,71,0.00,,,0.00,meteobridge,2016-02-10 10:14:00,
2016-02-10 04:24:00,22.6,15.3,30.27,WSW,247,0.0,0.0,73,0.00,,,0.00,meteobridge,2016-02-10 10:24:00,
2016-02-10 04:29:00,22.8,15.4,30.27,WSW,247,0.0,0.0,73,0.00,,,0.00,meteobridge,2016-02-10 10:29:00,
2016-02-10 04:34:00,22.8,15.4,30.28,WSW,247,0.0,0.0,73,0.00,,,0.00,meteobridge,2016-02-10 10:34:00,
2016-02-10 04:39:00,23.2,16.2,30.28,WSW,247,0.0,0.0,74,0.00,,,0.00,meteobridge,2016-02-10 10:39:00,
2016-02-10 04:44:00,23.2,15.8,30.27,WSW,247,0.0,0.0,73,0.00,,,0.00,meteobridge,2016-02-10 10:44:00,
2016-02-10 04:49:00,23.4,16.0,30.27,WSW,247,0.0,0.0,73,0.00,,,0.00,meteobridge,2016-02-10 10:49:00,
2016-02-10 04:54:00,23.4,16.0,30.26,WSW,247,0.0,0.0,73,0.00,,,0.00,meteobridge,2016-02-10 10:54:00,
2016-02-10 04:59:00,23.5,15.8,30.26,WSW,241,0.0,0.0,72,0.00,,,0.00,meteobridge,2016-02-10 10:59:00,
2016-02-10 05:04:00,23.7,15.6,30.27,WSW,248,0.0,2.0,71,0.00,,,0.00,meteobridge,2016-02-10 11:04:00,
2016-02-10 05:09:00,23.7,15.6,30.27,WSW,248,0.0,0.0,71,0.00,,,0.00,meteobridge,2016-02-10 11:09:00,
2016-02-10 05:14:00,23.7,15.4,30.27,WSW,248,0.0,0.0,70,0.00,,,0.00,meteobridge,2016-02-10 11:14:00,
2016-02-10 05:19:00,23.7,15.6,30.27,WSW,248,0.0,0.0,71,0.00,,,0.00,meteobridge,2016-02-10 11:19:00,
2016-02-10 05:29:00,23.7,15.6,30.27,WSW,248,0.0,0.0,71,0.00,,,0.00,meteobridge,2016-02-10 11:29:00,
2016-02-10 05:34:00,23.7,16.0,30.27,WSW,248,0.0,0.0,72,0.00,,,0.00,meteobridge,2016-02-10 11:34:00,
2016-02-10 05:44:00,23.7,16.3,30.26,ESE,123,0.0,1.0,73,0.00,,,0.00,meteobridge,2016-02-10 11:44:00,
2016-02-10 05:49:00,23.5,16.5,30.26,ESE,123,0.0,0.0,74,0.00,,,0.00,meteobridge,2016-02-10 11:49:00,
2016-02-10 06:00:00,23.4,16.3,30.26,ESE,123,0.0,0.0,74,0.00,,,0.00,meteobridge,2016-02-10 12:00:00,
2016-02-10 06:10:00,23.4,16.0,30.25,SSE,152,0.0,0.0,73,0.00,,,0.00,meteobridge,2016-02-10 12:10:00,
2016-02-10 06:15:00,23.5,15.8,30.25,SE,125,0.0,1.0,72,0.00,,,0.00,meteobridge,2016-02-10 12:15:00,
2016-02-10 06:20:00,23.5,15.4,30.24,East,97,0.0,1.0,71,0.00,,,0.00,meteobridge,2016-02-10 12:20:00,
2016-02-10 06:25:00,23.7,15.4,30.24,SE,142,0.0,1.0,70,0.00,,,0.00,meteobridge,2016-02-10 12:25:00,
2016-02-10 06:30:00,23.7,15.4,30.24,ESE,109,1.1,1.1,70,0.00,,,0.00,meteobridge,2016-02-10 12:30:00,
2016-02-10 06:36:00,23.7,15.1,30.24,SE,145,0.0,0.0,69,0.00,,,0.00,meteobridge,2016-02-10 12:36:00,
2016-02-10 06:41:00,23.7,15.1,30.24,South,178,0.0,1.0,69,0.00,,,0.00,meteobridge,2016-02-10 12:41:00,
2016-02-10 06:46:00,23.9,15.3,30.24,SE,128,1.1,1.1,69,0.00,,,0.00,meteobridge,2016-02-10 12:46:00,
2016-02-10 06:51:00,24.1,15.1,30.24,SSE,149,1.1,1.1,68,0.00,,,0.00,meteobridge,2016-02-10 12:51:00,
2016-02-10 06:56:00,23.9,14.9,30.24,SE,137,0.0,0.0,68,0.00,,,0.00,meteobridge,2016-02-10 12:56:00,
2016-02-10 07:01:00,23.9,14.9,30.23,SE,137,0.0,0.0,68,0.00,,,0.00,meteobridge,2016-02-10 13:01:00,
2016-02-10 07:06:00,23.9,14.9,30.23,ESE,118,0.0,0.0,68,0.00,,,0.00,meteobridge,2016-02-10 13:06:00,
2016-02-10 07:11:00,23.9,14.5,30.23,SSE,158,0.0,0.0,67,0.00,,,0.00,meteobridge,2016-02-10 13:11:00,
2016-02-10 07:16:00,23.7,14.4,30.24,South,183,0.0,0.0,67,0.00,,,0.00,meteobridge,2016-02-10 13:16:00,
2016-02-10 07:21:00,24.1,14.7,30.24,ESE,113,0.0,0.0,67,0.00,,,0.00,meteobridge,2016-02-10 13:21:00,
2016-02-10 07:26:00,24.1,14.4,30.24,SSE,164,0.0,1.0,66,0.00,,,0.00,meteobridge,2016-02-10 13:26:00,
2016-02-10 07:31:00,24.6,14.9,30.24,SE,127,1.1,1.1,66,0.00,,,0.00,meteobridge,2016-02-10 13:31:00,
2016-02-10 07:37:00,25.2,14.4,30.24,ESE,110,1.1,1.1,63,0.00,,,0.00,meteobridge,2016-02-10 13:37:00,
2016-02-10 07:42:00,25.5,14.0,30.25,SE,128,1.1,1.1,61,0.00,,,0.00,meteobridge,2016-02-10 13:42:00,
2016-02-10 07:47:00,25.9,14.4,30.25,SSW,210,1.1,1.1,61,0.00,,,0.00,meteobridge,2016-02-10 13:47:00,
2016-02-10 07:52:00,26.2,14.2,30.25,South,169,0.0,1.0,60,0.00,,,0.00,meteobridge,2016-02-10 13:52:00,
2016-02-10 07:57:00,27.0,14.5,30.25,SSE,164,1.1,2.0,59,0.00,,,0.00,meteobridge,2016-02-10 13:57:00,
2016-02-10 08:02:00,27.5,14.7,30.24,SE,144,2.0,2.0,58,0.00,,,0.00,meteobridge,2016-02-10 14:02:00,
2016-02-10 08:07:00,28.0,14.7,30.24,SSW,203,3.1,4.0,57,0.00,,,0.00,meteobridge,2016-02-10 14:07:00,
2016-02-10 08:13:00,28.2,14.5,30.24,SSE,166,3.1,6.0,56,0.00,,,0.00,meteobridge,2016-02-10 14:13:00,
2016-02-10 08:23:00,28.8,14.2,30.24,SSW,207,4.3,6.0,54,0.00,,,0.00,meteobridge,2016-02-10 14:23:00,
2016-02-10 08:28:00,29.3,14.7,30.24,SSW,197,6.3,7.0,54,0.00,,,0.00,meteobridge,2016-02-10 14:28:00,
2016-02-10 08:33:00,29.7,14.2,30.23,SSE,147,2.0,6.0,52,0.00,,,0.00,meteobridge,2016-02-10 14:33:00,
2016-02-10 08:38:00,30.0,14.9,30.23,South,182,3.1,6.0,53,0.00,,,0.00,meteobridge,2016-02-10 14:38:00,
2016-02-10 08:43:00,30.6,14.2,30.23,WSW,243,4.3,11.0,50,0.00,,,0.00,meteobridge,2016-02-10 14:43:00,
2016-02-10 08:48:00,30.7,12.9,30.22,SSW,197,4.3,11.0,47,0.00,,,0.00,meteobridge,2016-02-10 14:48:00,
2016-02-10 08:54:00,30.9,12.6,30.22,SSE,168,11.6,15.0,46,0.00,,,0.00,meteobridge,2016-02-10 14:54:00,
2016-02-10 08:59:00,31.3,12.9,30.23,SSE,161,3.1,9.0,46,0.00,,,0.00,meteobridge,2016-02-10 14:59:00,
2016-02-10 09:04:00,31.6,12.7,30.23,SSE,152,8.5,10.0,45,0.00,,,0.00,meteobridge,2016-02-10 15:04:00,
2016-02-10 09:09:00,32.2,12.7,30.23,SSW,206,10.5,11.0,44,0.00,,,0.00,meteobridge,2016-02-10 15:09:00,
2016-02-10 09:14:00,32.4,12.4,30.23,South,176,6.3,11.0,43,0.00,,,0.00,meteobridge,2016-02-10 15:14:00,
2016-02-10 09:19:00,32.5,12.6,30.22,SSW,197,9.6,13.0,43,0.00,,,0.00,meteobridge,2016-02-10 15:19:00,
2016-02-10 09:24:00,32.7,12.2,30.22,South,179,5.4,14.0,42,0.00,,,0.00,meteobridge,2016-02-10 15:24:00,
2016-02-10 09:29:00,33.1,13.1,30.21,SSW,200,3.1,-999.0,43,0.00,,,0.00,meteobridge,2016-02-10 15:29:00,
2016-02-10 09:34:00,33.3,12.6,30.21,South,189,8.5,14.0,42,0.00,,,0.00,meteobridge,2016-02-10 15:34:00,
2016-02-10 09:39:00,33.3,12.0,30.21,SSE,151,4.3,16.0,41,0.00,,,0.00,meteobridge,2016-02-10 15:39:00,
2016-02-10 09:44:00,33.6,12.9,30.21,SW,224,4.3,10.0,42,0.00,,,0.00,meteobridge,2016-02-10 15:44:00,
2016-02-10 09:50:00,34.3,13.6,30.20,SSW,204,7.4,10.0,42,0.00,,,0.00,meteobridge,2016-02-10 15:50:00,
2016-02-10 09:55:00,34.5,13.8,30.20,SSW,207,4.3,7.0,42,0.00,,,0.00,meteobridge,2016-02-10 15:55:00,
2016-02-10 10:00:00,34.9,14.2,30.20,SSW,196,3.1,-999.0,42,0.00,,,0.00,meteobridge,2016-02-10 16:00:00,
2016-02-10 10:10:00,35.6,13.6,30.20,WSW,245,5.4,9.0,40,0.00,,,0.00,meteobridge,2016-02-10 16:10:00,
2016-02-10 10:15:00,36.0,14.5,30.19,WSW,248,4.3,10.0,41,0.00,,,0.00,meteobridge,2016-02-10 16:15:00,
2016-02-10 10:20:00,36.3,14.4,30.18,SSE,165,10.5,14.0,40,0.00,,,0.00,meteobridge,2016-02-10 16:20:00,
2016-02-10 10:25:00,36.3,14.9,30.18,SSE,166,11.6,15.0,41,0.00,,,0.00,meteobridge,2016-02-10 16:25:00,
2016-02-10 10:31:00,36.9,16.0,30.18,West,261,6.3,15.0,42,0.00,,,0.00,meteobridge,2016-02-10 16:31:00,
2016-02-10 10:36:00,37.4,15.8,30.17,South,176,5.4,14.0,41,0.00,,,0.00,meteobridge,2016-02-10 16:36:00,
2016-02-10 10:41:00,37.8,15.6,30.17,SW,223,4.3,15.0,40,0.00,,,0.00,meteobridge,2016-02-10 16:41:00,
2016-02-10 10:46:00,37.9,16.3,30.16,SW,219,3.1,10.0,41,0.00,,,0.00,meteobridge,2016-02-10 16:46:00,
2016-02-10 10:51:00,38.7,17.1,30.16,SW,216,6.3,13.0,41,0.00,,,0.00,meteobridge,2016-02-10 16:51:00,
2016-02-10 10:56:00,39.0,16.7,30.16,SW,220,8.5,13.0,40,0.00,,,0.00,meteobridge,2016-02-10 16:56:00,
2016-02-10 11:01:00,39.4,17.1,30.15,WSW,247,7.4,12.0,40,0.00,,,0.00,meteobridge,2016-02-10 17:01:00,
2016-02-10 11:06:00,40.1,17.8,30.15,SSW,193,4.3,12.0,40,0.00,,,0.00,meteobridge,2016-02-10 17:06:00,
2016-02-10 11:16:00,40.6,17.6,30.14,WSW,245,6.3,11.0,39,0.00,,,0.00,meteobridge,2016-02-10 17:16:00,
2016-02-10 11:21:00,41.5,18.5,30.13,WSW,241,7.4,12.0,39,0.00,,,0.00,meteobridge,2016-02-10 17:21:00,
2016-02-10 11:26:00,41.9,18.1,30.13,SW,231,8.5,12.0,38,0.00,,,0.00,meteobridge,2016-02-10 17:26:00,
2016-02-10 11:31:00,42.3,18.5,30.13,WSW,257,6.3,11.0,38,0.00,,,0.00,meteobridge,2016-02-10 17:31:00,
2016-02-10 11:36:00,42.8,18.9,30.13,SE,138,4.3,11.0,38,0.00,,,0.00,meteobridge,2016-02-10 17:36:00,
2016-02-10 11:41:00,43.3,18.9,30.13,SW,217,10.5,12.0,37,0.00,,,0.00,meteobridge,2016-02-10 17:41:00,
2016-02-10 11:46:00,43.7,19.0,30.12,SW,228,8.5,12.0,37,0.00,,,0.00,meteobridge,2016-02-10 17:46:00,
2016-02-10 11:51:00,44.4,20.5,30.12,SW,214,7.4,14.0,38,0.00,,,0.00,meteobridge,2016-02-10 17:51:00,
2016-02-10 11:56:00,44.6,19.9,30.11,West,268,11.6,12.0,37,0.00,,,0.00,meteobridge,2016-02-10 17:56:00,
2016-02-10 12:06:00,45.7,20.8,30.11,SSW,200,5.4,11.0,37,0.00,,,0.00,meteobridge,2016-02-10 18:06:00,
2016-02-10 12:11:00,46.0,20.5,30.10,SSW,195,3.1,12.0,36,0.00,,,0.00,meteobridge,2016-02-10 18:11:00,
2016-02-10 12:17:00,46.6,21.0,30.09,SSW,212,7.4,11.0,36,0.00,,,0.00,meteobridge,2016-02-10 18:17:00,
2016-02-10 12:22:00,46.8,21.9,30.08,South,172,6.3,10.0,37,0.00,,,0.00,meteobridge,2016-02-10 18:22:00,
2016-02-10 12:27:00,47.7,22.1,30.08,WSW,241,3.1,10.0,36,0.00,,,0.00,meteobridge,2016-02-10 18:27:00,
2016-02-10 12:32:00,48.6,22.8,30.08,South,172,4.3,12.0,36,0.00,,,0.00,meteobridge,2016-02-10 18:32:00,
2016-02-10 12:37:00,48.7,23.0,30.07,WNW,282,5.4,6.0,36,0.00,,,0.00,meteobridge,2016-02-10 18:37:00,
2016-02-10 12:42:00,49.3,23.5,30.07,SE,133,9.6,12.0,36,0.00,,,0.00,meteobridge,2016-02-10 18:42:00,
2016-02-10 12:47:00,49.6,23.7,30.06,WSW,247,8.5,10.0,36,0.00,,,0.00,meteobridge,2016-02-10 18:47:00,
2016-02-10 12:52:00,50.2,24.3,30.05,WSW,252,9.6,11.0,36,0.00,,,0.00,meteobridge,2016-02-10 18:52:00,
2016-02-10 12:57:00,50.5,24.6,30.05,WSW,254,7.4,11.0,36,0.00,,,0.00,meteobridge,2016-02-10 18:57:00,
2016-02-10 13:02:00,51.4,25.3,30.04,WSW,251,9.6,12.0,36,0.00,,,0.00,meteobridge,2016-02-10 19:02:00,
2016-02-10 13:07:00,52.0,25.9,30.04,SSW,203,5.4,11.0,36,0.00,,,0.00,meteobridge,2016-02-10 19:07:00,
2016-02-10 13:12:00,52.9,25.9,30.03,SW,217,5.4,15.0,35,0.00,,,0.00,meteobridge,2016-02-10 19:12:00,
2016-02-10 13:17:00,53.1,26.1,30.03,WSW,252,5.4,9.0,35,0.00,,,0.00,meteobridge,2016-02-10 19:17:00,
2016-02-10 13:27:00,54.3,26.6,30.02,SSW,196,8.5,11.0,34,0.00,,,0.00,meteobridge,2016-02-10 19:27:00,
2016-02-10 13:32:00,55.0,27.1,30.01,WSW,252,6.3,11.0,34,0.00,,,0.00,meteobridge,2016-02-10 19:32:00,
2016-02-10 13:37:00,55.8,27.9,30.01,SE,124,4.3,9.0,34,0.00,,,0.00,meteobridge,2016-02-10 19:37:00,
2016-02-10 13:47:00,56.3,27.5,29.99,SSW,204,6.3,11.0,33,0.00,,,0.00,meteobridge,2016-02-10 19:47:00,
2016-02-10 13:52:00,56.8,28.0,29.99,WSW,237,6.3,11.0,33,0.00,,,0.00,meteobridge,2016-02-10 19:52:00,
2016-02-10 13:57:00,57.6,28.6,29.99,SW,228,5.4,14.0,33,0.00,,,0.00,meteobridge,2016-02-10 19:57:00,
2016-02-10 14:02:00,57.9,28.2,29.99,SSW,209,4.3,9.0,32,0.00,,,0.00,meteobridge,2016-02-10 20:02:00,
2016-02-10 14:08:00,58.5,28.8,29.98,South,186,7.4,7.4,32,0.00,,,0.00,meteobridge,2016-02-10 20:08:00,
2016-02-10 14:13:00,58.8,28.9,29.98,SW,226,8.5,14.0,32,0.00,,,0.00,meteobridge,2016-02-10 20:13:00,
2016-02-10 14:18:00,59.4,29.5,29.98,WSW,245,1.1,6.0,32,0.00,,,0.00,meteobridge,2016-02-10 20:18:00,
2016-02-10 14:28:00,60.3,29.5,29.97,WSW,244,6.3,12.0,31,0.00,,,0.00,meteobridge,2016-02-10 20:28:00,
2016-02-10 14:33:00,60.4,29.7,29.96,SW,233,4.3,11.0,31,0.00,,,0.00,meteobridge,2016-02-10 20:33:00,
2016-02-10 14:38:00,61.0,30.2,29.96,SE,144,5.4,10.0,31,0.00,,,0.00,meteobridge,2016-02-10 20:38:00,
2016-02-10 14:43:00,61.5,29.8,29.95,SSE,168,9.6,15.0,30,0.00,,,0.00,meteobridge,2016-02-10 20:43:00,
2016-02-10 14:48:00,62.1,30.2,29.95,SSW,195,2.0,7.0,30,0.00,,,0.00,meteobridge,2016-02-10 20:48:00,
2016-02-10 14:53:00,62.6,30.7,29.95,SW,226,3.1,9.0,30,0.00,,,0.00,meteobridge,2016-02-10 20:53:00,
2016-02-10 14:58:00,63.0,30.2,29.95,SE,145,4.3,7.0,29,0.00,,,0.00,meteobridge,2016-02-10 20:58:00,
2016-02-10 15:03:00,63.3,30.6,29.95,SW,216,3.1,7.0,29,0.00,,,0.00,meteobridge,2016-02-10 21:03:00,
2016-02-10 15:08:00,63.7,30.7,29.95,West,261,5.4,9.0,29,0.00,,,0.00,meteobridge,2016-02-10 21:08:00,
2016-02-10 15:13:00,63.7,30.7,29.94,SSW,206,4.3,10.0,29,0.00,,,0.00,meteobridge,2016-02-10 21:13:00,
2016-02-10 15:18:00,64.0,31.1,29.94,SSW,213,2.0,7.0,29,0.00,,,0.00,meteobridge,2016-02-10 21:18:00,